OneWeb SL0219

operational
NORAD ID: 48223 Int'l Des: 2021-031 Owner: ONEWEBN Country: UK Constellation: oneweb
LEOCIRCULARPOLARONEWEB_TYPE

OneWeb SL0219について

説明を読み込み中...

リアルタイム位置

3D地球を読み込み中...

次回通過

高度履歴

Altitude vs Time

uPlot chart will show altitude changes over time

軌道要素

1 48223U 21031P 25257.60089693 .00000088 00000-0 20240-3 0 9995
2 48223 87.9083 344.5696 0002116 105.6633 254.4730 13.14503387212170
Epoch: Sep 14, 2025 • Age: 20 hours

現在のステータス

高度 1211.4 km
速度 7.25 km/s
衛星直下点 43.32°N, 169.32°W
打ち上げ日 Apr 25, 2021
運用期間 4.3 years
タイプ internet

技術仕様

分類 Payload
質量 148.00 kg
乾燥質量 140.00 kg
総質量 148.00 kg
長さ 1.30 m
直径 1.00 m
スパン 5.00 m
形状 Trapezoid+2 pan
製造者 ONEWUS
バスタイプ ARROW
フェーズステータス In Orbit
所有者/国 ONEWEBN/UK

大規模コンステレーション

Loading constellations...